Cosmos 405 - Orbit

View from above orbital plane
View from above orbital plane
View from above satellite
View from above satellite

Ground track
Ground track

The orbit data is extracted from the following two-line orbital elements,

1 05117U 71028A   13144.15009140  .00006962  00000-0  34850-3 0  1566
2 05117 081.2697 290.7138 0016479 163.8530 250.0337 15.17142592286230
Epoch (UTC): 24 May 2013 03:36:07
Eccentricity: 0.0016479
inclination: 81.2697°
perigee height: 503 km
apogee height: 526 km
right ascension of ascending node: 290.7138°
argument of perigee: 163.8530°
revolutions per day: 15.17142592
mean anomaly at epoch: 250.0337°
orbit number at epoch: 28623

The dashed part of the orbit path shows where the satellite is in the earth's shadow,  

Developed and maintained by Chris Peat, Heavens-Above GmbH. Please read the updated FAQ before sending e-mail. Imprint. DLR